Location: Asheville, NC
(35.6000°N, 82.5500°W)
Time: 23:43:39
(UTC-04:00)

Vanguard 2 Rocket - Pass Details

Date: 12 December 2017
Orbit: 553 x 3328 km, 32.9° (Epoch: 25 April)

Event Time Altitude Azimuth Distance (km) Brightness Sun altitude
Rises 23:52:23 0° 276° (W) 6,463 11.4 -75.7°
Reaches altitude 10° 23:56:13 10° 275° (W) 5,704 11.0 -76.1°
Enters shadow 23:57:31 14° 275° (W) 5,459 10.8 -76.2°
Exits shadow 00:37:55 - 112° (ESE) 6,389 11.2 -77.1°
Sets 00:38:06 0° 112° (ESE) 6,426 11.2 -77.1°
